[[{"header":{"parameterUnit":"m.s-1","parameterCategory":1,"la1":30.2991,"la2":30.254,"lo1":-89.0895,"lo2":-89.0444,"dy":0.0017,"dx":0.0017,"nx":28,"ny":28,"refTime":"2025-04-01T21:00:00:Z","depth":0,"parameterNumber":2,"parameterNumberName":"U-component_of_WINDS"},"data":[0,0,0,0,0,0,0,0,0,0,0,0,0,0,0,0,0,0,0,0,0,0,0,0,0,0,0,0,0,0,0,0,0,0,0,0,0,0,0,0,0,0,0,0,0,0,0,0,0,0,0,0,0,0,0,0,0,0,-5.2921,-5.2923,0,-5.3085,-5.3086,-5.3088,-5.3113,-5.3111,-5.311,-5.3108,-5.3275,-5.3281,-5.3287,0,0,0,0,0,0,0,0,0,0,0,0,0,-5.2631,-5.2636,-5.2921,-5.2923,-5.2925,-5.3084,-5.3087,-5.3089,-5.3113,-5.3111,-5.3109,-5.3108,-5.3273,-5.328,-5.3287,0,0,0,0,0,0,0,0,0,0,0,0,0,-5.2772,-5.2638,-5.2921,-5.2957,-5.2961,-5.3084,-5.3087,-5.3089,-5.3113,-5.3111,-5.3109,-5.3107,-5.3271,-5.328,-5.3288,-5.3386,0,0,-5.3315,-5.3319,0,0,0,0,0,0,0,0,-5.2764,-5.2783,-5.2949,-5.2954,-5.296,-5.3076,-5.3046,-5.3189,-5.3114,-5.3056,-5.3108,-5.3106,-5.3211,-5.3224,-5.326,-5.3394,-5.3401,-5.3316,-5.3321,-5.3325,-5.3327,0,0,0,0,0,0,0,-5.2754,-5.2776,-5.2986,-5.2952,-5.2958,-5.2965,-5.2982,-5.3073,-5.3144,-5.3061,-5.3063,-5.3082,-5.3213,-5.3251,-5.3264,-5.3404,-5.3315,-5.3323,-5.3329,-5.3332,-5.3627,-5.363,0,0,0,0,0,0,-5.2738,-5.2767,-5.2981,-5.2991,-5.2855,-5.2972,-5.2991,-5.3041,-5.3143,-5.3156,-5.3083,-5.3082,-5.3238,-5.3254,-5.327,-5.3391,-5.3325,-5.3333,-5.3338,-5.3625,-5.3628,-5.3631,0,0,0,0,0,0,-5.2732,-5.2757,-5.2974,-5.288,-5.2908,-5.2979,-5.3035,-5.3045,-5.3083,-5.316,-5.3173,-5.3109,-5.3236,-5.3258,-5.3357,-5.3397,-5.3337,-5.3345,-5.3622,-5.3626,-5.3629,-5.3633,0,0,0,0,0,0,-5.2723,-5.2754,-5.2792,-5.288,-5.2913,-5.3058,-5.3037,-5.305,-5.3098,-5.3098,-5.3188,-5.32,-5.3236,-5.3344,-5.3366,-5.3408,-5.3352,-5.3618,-5.3623,-5.3628,-5.363,-5.3637,-5.3643,0,0,0,0,0,-5.2713,-5.2787,-5.2794,-5.2819,-5.2961,-5.3061,-5.3079,-5.3119,-5.3102,-5.314,-5.319,-5.3197,-5.339,-5.3354,-5.3379,-5.3424,-5.3616,-5.3622,-5.3628,-5.3627,-5.3636,-5.3643,0,0,0,0,0,0,-5.27,-5.2799,-5.2808,-5.2912,-5.2978,-5.3064,-5.3114,-5.3127,-5.3199,-5.3196,-5.3243,-5.3263,-5.336,-5.3403,-5.3361,-5.3525,-5.3501,-5.3512,-5.3492,-5.3501,-5.3508,-5.3494,-5.3359,0,0,0,0,0,-5.271,-5.2782,-5.2864,-5.2949,-5.2981,-5.3042,-5.3087,-5.3112,-5.3182,-5.321,-5.3267,-5.3334,-5.341,-5.3458,-5.3532,-5.3638,-5.3657,-5.3681,-5.3687,-5.3692,-5.37,-5.3759,-5.377,-5.365,-5.365,-5.365,0,0,-5.273,-5.2793,-5.2835,-5.2948,-5.3002,-5.3075,-5.3065,-5.3144,-5.3199,-5.3222,-5.3319,-5.3363,-5.3442,-5.3544,-5.3592,-5.3583,-5.3739,-5.37,-5.3703,-5.3709,-5.3766,-5.3777,-5.3787,-5.3654,-5.3653,-5.3652,0,0,-5.2804,-5.2859,-5.2935,-5.299,-5.3072,-5.3112,-5.313,-5.3216,-5.3246,-5.3344,-5.3363,-5.343,-5.3559,-5.3614,-5.3659,-5.3756,-5.3766,-5.3779,-5.3812,-5.3868,-5.3878,-5.3886,-5.3919,-5.3931,-5.3788,-5.3788,-5.3788,0,-5.2818,-5.293,-5.2973,-5.3051,-5.3099,-5.3125,-5.3202,-5.3253,-5.3355,-5.3388,-5.3376,-5.3539,-5.3594,-5.371,-5.3733,-5.377,-5.3792,-5.3768,-5.3873,-5.3882,-5.3891,-5.3923,-5.3935,-5.3789,-5.3788,-5.3788,-5.3788,0,-5.2943,-5.3021,-5.3072,-5.317,-5.3225,-5.3302,-5.3357,-5.3408,-5.3429,-5.3471,-5.3571,-5.3638,-5.3726,-5.3756,-5.3777,-5.3875,-5.3866,-5.3863,-5.384,-5.3902,-5.3933,-5.3946,-5.379,-5.379,-5.3789,-5.3789,0,0,-5.3011,-5.3133,-5.3151,-5.3195,-5.3288,-5.3349,-5.3428,-5.3514,-5.3556,-5.3626,-5.3693,-5.3803,-5.3801,-5.3852,-5.3881,-5.393,-5.4001,-5.3922,-5.3924,-5.3932,-5.4112,-5.4111,-5.4125,-5.401,-5.4012,-5.4014,-5.4105,0,-5.3095,-5.3235,-5.3277,-5.3395,-5.3466,-5.3493,-5.3561,-5.3626,-5.3668,-5.3735,-5.3781,-5.3857,-5.385,-5.3881,-5.3932,-5.3982,-5.4038,-5.3976,-5.4071,-5.4074,-5.4048,-5.4141,-5.4142,-5.4223,-5.4117,-5.4119,-5.4121,0,-5.321,-5.3282,-5.3407,-5.3491,-5.3523,-5.3583,-5.3666,-5.373,-5.3804,-5.3831,-5.3889,-5.3913,-5.3997,-5.3972,-5.4087,-5.4044,-5.4086,-5.4117,-5.4121,-5.413,-5.4099,-5.415,-5.425,-5.4262,-5.4141,-5.4139,-5.4138,0,-5.3245,-5.3373,-5.3465,-5.3502,-5.3603,-5.3645,-5.3689,-5.3761,-5.3811,-5.3883,-5.3916,-5.3997,-5.4041,-5.4104,-5.415,-5.4128,-5.4261,-5.424,-5.4285,-5.4284,-5.4309,-5.4307,-5.4415,-5.434,-5.434,-5.434,-5.434,0,-5.3332,-5.3407,-5.3482,-5.3537,-5.3623,-5.3671,-5.3754,-5.3799,-5.3863,-5.3929,-5.3958,-5.4018,-5.4076,-5.4145,-5.4182,-5.4271,-5.4292,-5.4315,-5.4324,-5.4311,-5.4308,-5.4337,-5.4332,-5.4343,-5.4343,-5.4342,-5.4341,0,-5.3384,-5.3437,-5.3538,-5.3626,-5.365,-5.3708,-5.3784,-5.3839,-5.3883,-5.3965,-5.3987,-5.4055,-5.4138,-5.4191,-5.4296,-5.4321,-5.4418,-5.4426,-5.4392,-5.4396,-5.4437,-5.4432,-5.4567,-5.4586,-5.45,-5.4501,-5.4501,0,-5.3435,-5.3493,-5.3587,-5.3633,-5.3677,-5.3751,-5.3801,-5.3852,-5.3903,-5.3993,-5.4037,-5.4122,-5.4192,-5.4322,-5.4381,-5.4462,-5.4471,-5.4513,-5.4483,-5.4468,-5.4469,-5.4464,-5.447,-5.4516,-5.4517,-5.4518,-5.4518,0,-5.3519,-5.3543,-5.3614,-5.3695,-5.3755,-5.3821,-5.3888,-5.3924,-5.3985,-5.4042,-5.4126,-5.4181,-5.4288,-5.4372,-5.4458,-5.4504,-5.4521,-5.4528,-5.4542,-5.4528,-5.4506,-5.4517,-5.4403,-5.4523,-5.4523,-5.4522,-5.4522,-5.4522,-5.3571,-5.3624,-5.3698,-5.3777,-5.3833,-5.3894,-5.395,-5.4001,-5.4073,-5.4164,-5.419,-5.4278,-5.4352,-5.4469,-5.4517,-5.4587,-5.4581,-5.4603,-5.4608,-5.4611,-5.4611,-5.4497,-5.4603,-5.4603,-5.4603,-5.4603,-5.4603,0,-5.3655,-5.3705,-5.3777,-5.3869,-5.3931,-5.3943,-5.4018,-5.4068,-5.4145,-5.4213,-5.4281,-5.4379,-5.446,-5.4526,-5.461,-5.4653,-5.4663,-5.4673,-5.4669,-5.4679,-5.4612,-5.459,-5.4663,-5.4663,-5.4663,-5.4663,-5.4663,-5.4663,-5.3706,-5.3796,-5.3829,-5.3946,-5.3996,-5.4082,-5.4123,-5.418,-5.4234,-5.4341,-5.4409,-5.4452,-5.4519,-5.4608,-5.4683,-5.47,-5.4729,-5.4737,-5.4756,-5.4691,-5.4684,-5.4677,-5.4657,-5.4743,-5.4744,-5.4817,-5.4818,-5.4819]},{"header":{"parameterUnit":"m.s-1","parameterCategory":1,"la1":30.2991,"la2":30.254,"lo1":-89.0895,"lo2":-89.0444,"dy":0.0017,"dx":0.0017,"nx":28,"ny":28,"refTime":"2025-04-01T21:00:00:Z","depth":0,"parameterNumber":3,"parameterNumberName":"V-component_of_WINDS"},"data":[0,0,0,0,0,0,0,0,0,0,0,0,0,0,0,0,0,0,0,0,0,0,0,0,0,0,0,0,0,0,0,0,0,0,0,0,0,0,0,0,0,0,0,0,0,0,0,0,0,0,0,0,0,0,0,0,0,0,6.5133,6.5134,0,6.5252,6.5253,6.5255,6.5245,6.5243,6.5242,6.524,6.5358,6.5363,6.5368,0,0,0,0,0,0,0,0,0,0,0,0,0,6.4896,6.4901,6.5133,6.5134,6.5136,6.5252,6.5253,6.5255,6.5246,6.5243,6.5241,6.5239,6.5357,6.5362,6.5368,0,0,0,0,0,0,0,0,0,0,0,0,0,6.5006,6.4902,6.5133,6.5145,6.5148,6.5251,6.5253,6.5255,6.5246,6.5243,6.5241,6.5238,6.5355,6.5362,6.5369,6.5467,0,0,6.5391,6.5394,0,0,0,0,0,0,0,0,6.4999,6.5014,6.5142,6.5145,6.5147,6.5231,6.5213,6.5326,6.5247,6.5209,6.524,6.5237,6.5318,6.5328,6.5356,6.5473,6.5478,6.5392,6.5396,6.5399,6.5401,0,0,0,0,0,0,0,6.4992,6.5009,6.518,6.5144,6.5147,6.5145,6.5157,6.5235,6.5277,6.5212,6.5211,6.5226,6.5319,6.5349,6.5359,6.5479,6.5392,6.5398,6.5402,6.5405,6.5685,6.5688,0,0,0,0,0,0,6.4982,6.5003,6.5176,6.5183,6.5065,6.5151,6.5165,6.5207,6.5276,6.5284,6.5228,6.5225,6.5338,6.535,6.5363,6.5484,6.5399,6.5406,6.541,6.5682,6.5686,6.5689,0,0,0,0,0,0,6.4977,6.4997,6.5171,6.5093,6.5115,6.5158,6.5205,6.5211,6.5241,6.5288,6.5295,6.5251,6.5337,6.5353,6.5442,6.5488,6.5409,6.5416,6.5678,6.5683,6.5688,6.5726,0,0,0,0,0,0,6.497,6.4995,6.5033,6.5094,6.5119,6.5249,6.5208,6.5215,6.5254,6.5251,6.5312,6.5319,6.5336,6.5431,6.5449,6.5497,6.5421,6.5675,6.5681,6.5686,6.5721,6.5732,6.5741,0,0,0,0,0,6.4961,6.5038,6.5035,6.5056,6.5168,6.5252,6.5266,6.5284,6.5257,6.5296,6.5327,6.5317,6.548,6.5441,6.5461,6.5511,6.5672,6.5679,6.5686,6.5717,6.573,6.5741,0,0,0,0,0,0,6.498,6.5046,6.5044,6.5142,6.5192,6.525,6.5299,6.5297,6.5354,6.5349,6.5368,6.5382,6.5472,6.55,6.5455,6.5611,6.5572,6.5584,6.5589,6.5602,6.5612,6.5603,6.5427,0,0,0,0,0,6.4996,6.5059,6.5113,6.5195,6.522,6.5256,6.5293,6.5303,6.5354,6.5374,6.5411,6.5461,6.5524,6.5564,6.5624,6.5725,6.5739,6.577,6.578,6.5788,6.5797,6.5855,6.587,6.5712,6.5712,6.5712,0,0,6.5028,6.5072,6.5111,6.52,6.5239,6.5305,6.5273,6.5342,6.5391,6.5385,6.5472,6.5501,6.5558,6.5654,6.5699,6.5681,6.5844,6.5796,6.5802,6.5808,6.5864,6.5879,6.5892,6.5717,6.5716,6.5715,0,0,6.5122,6.5161,6.5235,6.5276,6.5336,6.536,6.5378,6.5437,6.5457,6.5545,6.5543,6.56,6.5707,6.5748,6.5783,6.5895,6.5889,6.5914,6.5966,6.6022,6.6034,6.6045,6.6087,6.6102,6.5923,6.5924,6.5924,0,6.5154,6.5253,6.5272,6.5344,6.5384,6.5383,6.5458,6.5496,6.5573,6.5601,6.558,6.5716,6.5753,6.5861,6.5889,6.5916,6.5938,6.5907,6.6031,6.6042,6.6053,6.6093,6.6108,6.5926,6.5926,6.5926,6.5925,0,6.5291,6.536,6.5412,6.5489,6.5535,6.5607,6.5638,6.5682,6.5689,6.5714,6.5805,6.5851,6.5922,6.5948,6.5954,6.6057,6.6044,6.6027,6.5989,6.6071,6.6109,6.6124,6.593,6.5929,6.5928,6.5928,0,0,6.5398,6.5487,6.5506,6.5542,6.561,6.5663,6.5736,6.5807,6.5845,6.5898,6.5961,6.6053,6.6039,6.6078,6.6089,6.6138,6.6227,6.6116,6.6117,6.6136,6.6345,6.6358,6.6376,6.6223,6.6226,6.6229,6.6341,0,6.55,6.5631,6.5652,6.5767,6.5832,6.5833,6.5897,6.5946,6.5973,6.6031,6.606,6.6125,6.61,6.6125,6.6174,6.6206,6.6269,6.6198,6.6282,6.6285,6.6269,6.6395,6.6409,6.6513,6.6356,6.6358,6.636,0,6.5635,6.5695,6.5817,6.5879,6.5907,6.5965,6.6032,6.6088,6.6144,6.616,6.6206,6.6212,6.6288,6.6247,6.6353,6.6304,6.634,6.6361,6.6366,6.6375,6.6328,6.6409,6.6546,6.6562,6.6383,6.6381,6.638,0,6.5703,6.5814,6.5902,6.5932,6.6006,6.6047,6.608,6.6133,6.6175,6.6234,6.6261,6.6328,6.6364,6.6415,6.6439,6.6407,6.6545,6.6505,6.6561,6.656,6.659,6.6588,6.6736,6.6611,6.6611,6.6611,6.661,0,6.5815,6.589,6.5934,6.5988,6.6073,6.6096,6.618,6.6211,6.6259,6.6319,6.6324,6.638,6.6408,6.6469,6.6488,6.6574,6.659,6.6605,6.661,6.6606,6.6604,6.663,6.6624,6.6615,6.6614,6.6613,6.6612,0,6.5905,6.5937,6.6034,6.6097,6.6115,6.6175,6.6229,6.6282,6.6308,6.6385,6.6405,6.6447,6.6519,6.6548,6.6635,6.6648,6.6748,6.6746,6.673,6.6732,6.6787,6.6782,6.6957,6.6982,6.684,6.6841,6.6842,0,6.5975,6.6033,6.6104,6.6145,6.618,6.6246,6.629,6.6315,6.6361,6.643,6.6475,6.6548,6.6607,6.6723,6.6761,6.6829,6.6829,6.6886,6.6839,6.6834,6.6832,6.6829,6.6835,6.6895,6.6896,6.6897,6.6898,0,6.6096,6.611,6.6173,6.6243,6.6295,6.6351,6.6405,6.6439,6.6473,6.6523,6.6598,6.6645,6.6736,6.6808,6.6879,6.6912,6.6911,6.6913,6.693,6.6927,6.6916,6.6924,6.6755,6.6909,6.6907,6.6907,6.6906,6.6906,6.6179,6.6232,6.6291,6.6362,6.6406,6.6457,6.6511,6.6545,6.6609,6.6686,6.6697,6.6778,6.6834,6.6929,6.6965,6.7029,6.7014,6.7037,6.7044,6.705,6.7054,6.6905,6.7041,6.7041,6.7041,6.704,6.704,0,6.6302,6.634,6.6405,6.6482,6.6539,6.6535,6.6595,6.6642,6.6714,6.6767,6.6826,6.6913,6.6984,6.7029,6.71,6.7143,6.7145,6.7161,6.7158,6.7167,6.7063,6.7042,6.7158,6.7158,6.7158,6.7158,6.7158,6.7158,6.6372,6.6463,6.6484,6.6596,6.6634,6.6714,6.6749,6.6797,6.684,6.6937,6.6997,6.7026,6.7076,6.7152,6.7217,6.7229,6.7255,6.7273,6.7283,6.7186,6.7173,6.7162,6.7142,6.7278,6.7278,6.7382,6.7383,6.7384]}]]